Weather History for KPSP - June, 2013

Change the Weather History Date:

Wednesday, June 19, 2013

  Actual Average Record
Temperature  
Mean Temperature 88 °F 87 °F  
Max Temperature 103 °F 103 °F 116 °F (1945)
Min Temperature 73 °F 72 °F 53 °F (1978)
Degree Days  
Heating Degree Days 0 0  
Month to date heating degree days 0 0  
Since 1 June heating degree days 0 0  
Since 1 July heating degree days 760 874  
Cooling Degree Days 23 22  
Month to date cooling degree days 453 382  
Year to date cooling degree days 1495 1141  
Since 1 June cooling degree days 453 382  
Growing Degree Days 38 (Base 50)    
Moisture  
Dew Point 41 °F    
Average Humidity 21    
Maximum Humidity 33    
Minimum Humidity 9    
Precipitation  
Precipitation 0.00 in 0.00 in 0.00 in (2015)
Month to date precipitation 0.00 0.04  
Year to date precipitation 0.97 2.92  
Since 1 July precipitation 2.19 5.72  
Snow  
Snow 0.00 in - - ()
Month to date snowfall 0.0  
Year to date snowfall 0.0  
Since 1 July snowfall 0.0  
Snow Depth 0.00 in    
Sea Level Pressure  
Sea Level Pressure 29.64 in    
Wind  
Wind Speed 7 mph (NW)    
Max Wind Speed 18 mph    
Max Gust Speed 24 mph    
Visibility 10 miles    
Events      
T = Trace of Precipitation, MM = Missing Value Source: NWS Daily Summary

Daily Weather History Graph

Daily Weather History Graph

Search for Another Location

Airport or City:

Trip Planner

Search our weather history database for the weather conditions in past years. The results will help you decide how hot, cold, wet, or windy it might be!

Date:

Astronomy

Jun. 19, 2013 Rise Set
Actual Time 5:35 AM PDT 7:59 PM PDT
Civil Twilight 5:06 AM PDT 8:28 PM PDT
Nautical Twilight 4:30 AM PDT 9:04 PM PDT
Astronomical Twilight 3:51 AM PDT 9:43 PM PDT
Moon 4:04 PM PDT (6/19) 2:14 AM PDT (6/19)
Length of Visible Light 15h 22m
Length of Day
14h 24m
Waxing Gibbous, 81% of the Moon is Illuminated
Jun 19
Waxing Gibbous
Jun 23
Full
Jun 29
Last Quarter
Jul 8
New
Jul 15
First Quarter

Hourly Weather History & Observations

Time (PDT) Temp. Dew Point Humidity Pressure Visibility Wind Dir Wind Speed Gust Speed Precip Events Conditions
12:53 AM 80.1 °F 44.1 °F 28% 29.63 in 10.0 mi Calm Calm - N/A   Clear
1:53 AM 78.1 °F 44.1 °F 30% 29.62 in 10.0 mi SE 4.6 mph - N/A   Clear
2:53 AM 75.9 °F 44.1 °F 32% 29.61 in 10.0 mi SSE 4.6 mph - N/A   Clear
3:53 AM 75.0 °F 45.0 °F 34% 29.62 in 10.0 mi South 5.8 mph - N/A   Clear
4:53 AM 75.0 °F 42.1 °F 31% 29.63 in 10.0 mi Calm Calm - N/A   Clear
5:53 AM 73.0 °F 43.0 °F 34% 29.65 in 10.0 mi Calm Calm - N/A   Clear
6:53 AM 77.0 °F 42.1 °F 29% 29.67 in 10.0 mi Calm Calm - N/A   Clear
7:53 AM 81.0 °F 42.1 °F 25% 29.69 in 10.0 mi Calm Calm - N/A   Clear
8:53 AM 87.1 °F 41.0 °F 20% 29.69 in 10.0 mi NW 13.8 mph 18.4 mph N/A   Clear
9:53 AM 90.0 °F 39.9 °F 17% 29.69 in 10.0 mi NNW 15.0 mph 23.0 mph N/A   Clear
10:53 AM 93.0 °F 39.9 °F 16% 29.69 in 10.0 mi NW 15.0 mph - N/A   Clear
11:53 AM 96.1 °F 35.1 °F 12% 29.69 in 10.0 mi NNW 9.2 mph 17.3 mph N/A   Clear
12:53 PM 96.1 °F 35.1 °F 12% 29.68 in 10.0 mi Calm Calm - N/A   Clear
1:53 PM 100.0 °F 37.9 °F 12% 29.66 in 10.0 mi North 10.4 mph 16.1 mph N/A   Clear
2:53 PM 100.0 °F 34.0 °F 10% 29.64 in 10.0 mi Variable 5.8 mph 20.7 mph N/A   Clear
3:53 PM 102.0 °F 32.0 °F 9% 29.61 in 10.0 mi NW 15.0 mph 21.9 mph N/A   Clear
4:53 PM 102.0 °F 35.1 °F 10% 29.60 in 10.0 mi NW 12.7 mph 20.7 mph N/A   Clear
5:53 PM 100.0 °F 39.9 °F 13% 29.60 in 10.0 mi NW 16.1 mph 28.8 mph N/A   Clear
6:53 PM 96.1 °F 42.1 °F 15% 29.60 in 10.0 mi NW 19.6 mph 26.5 mph N/A   Clear
7:53 PM 91.9 °F 45.0 °F 20% 29.60 in 10.0 mi NW 21.9 mph 25.3 mph N/A   Clear
8:53 PM 88.0 °F 48.0 °F 25% 29.62 in 10.0 mi NW 23.0 mph 29.9 mph N/A   Clear
9:53 PM 84.9 °F 46.9 °F 27% 29.63 in 10.0 mi NW 18.4 mph - N/A   Clear
10:53 PM 86.0 °F 44.1 °F 23% 29.63 in 10.0 mi NW 12.7 mph - N/A   Clear
11:53 PM 82.9 °F 44.1 °F 25% 29.64 in 10.0 mi Calm Calm - N/A   Clear